When you browse on this site, cookies collect data to enhance your experience and personalize the content and advertising you see.
Visit our Privacy Policy to learn more. By continuing to use the site, you agree to this use of cookies and data.
  • In Romania
  • List of Countries
  • For 7 days
  • Water Temperature
  • Satellite Maps
  • Weather Map
  • Weather Widgets
  • user-avatar
    Login

    Hourly Weather Da Nang

    Today, 25 April, Thursday

    Time Temperature Precipitation Wind Pressure Humidity
    00:00 +27°C° 0 mm 2 mps 755 mmHg 77%
    01:00 +27°C° 0 mm 2 mps 755 mmHg 78%
    02:00 +27°C° 0 mm 2 mps 754 mmHg 77%
    03:00 +27°C° 0 mm 2 mps 754 mmHg 75%
    04:00 +27°C° 0 mm 2 mps 754 mmHg 73%
    05:00 +28°C° 0 mm 2 mps 755 mmHg 69%
    06:00 +29°C° 0 mm 2 mps 755 mmHg 65%
    07:00 +31°C° 0 mm 1 mps 756 mmHg 62%
    08:00 +35°C° 0 mm 2 mps 756 mmHg 54%
    09:00 +37°C° 0 mm 2 mps 756 mmHg 47%
    10:00 +40°C° 0 mm 3 mps 756 mmHg 40%
    11:00 +40°C° 0 mm 3 mps 755 mmHg 39%
    12:00 +41°C° 0 mm 4 mps 755 mmHg 39%
    13:00 +42°C° 0 mm 5 mps 754 mmHg 39%
    14:00 +41°C° 0 mm 5 mps 754 mmHg 42%
    15:00 +40°C° 0 mm 5 mps 754 mmHg 46%
    16:00 +39°C° 0 mm 5 mps 753 mmHg 49%
    17:00 +36°C° 0 mm 4 mps 754 mmHg 58%
    18:00 +33°C° 0 mm 4 mps 754 mmHg 68%
    19:00 +30°C° 0 mm 3 mps 754 mmHg 77%
    20:00 +29°C° 0 mm 3 mps 754 mmHg 79%
    21:00 +29°C° 0 mm 2 mps 755 mmHg 81%
    22:00 +28°C° 0 mm 2 mps 755 mmHg 83%
    23:00 +28°C° 0 mm 2 mps 755 mmHg 83%

    Tomorrow, 26 April, Friday

    Time Temperature Precipitation Wind Pressure Humidity
    00:00 +28°C° 0 mm 2 mps 755 mmHg 82%
    01:00 +27°C° 0 mm 2 mps 754 mmHg 82%
    02:00 +27°C° 0 mm 2 mps 754 mmHg 82%
    03:00 +27°C° 0 mm 2 mps 754 mmHg 81%
    04:00 +27°C° 0 mm 2 mps 754 mmHg 81%
    05:00 +28°C° 0 mm 2 mps 754 mmHg 76%
    06:00 +29°C° 0 mm 2 mps 755 mmHg 71%
    07:00 +30°C° 0 mm 2 mps 755 mmHg 66%
    08:00 +34°C° 0 mm 2 mps 755 mmHg 56%
    09:00 +37°C° 0 mm 2 mps 755 mmHg 46%
    10:00 +40°C° 0 mm 3 mps 756 mmHg 37%
    11:00 +40°C° 0 mm 3 mps 755 mmHg 36%
    12:00 +42°C° 0 mm 4 mps 755 mmHg 35%
    13:00 +42°C° 0 mm 5 mps 754 mmHg 34%
    14:00 +41°C° 0 mm 5 mps 754 mmHg 38%
    15:00 +39°C° 0 mm 5 mps 753 mmHg 43%
    16:00 +37°C° 0 mm 5 mps 753 mmHg 48%
    17:00 +35°C° 0 mm 4 mps 753 mmHg 60%
    18:00 +32°C° 0 mm 4 mps 753 mmHg 71%
    19:00 +29°C° 0 mm 4 mps 754 mmHg 82%
    20:00 +28°C° 0 mm 3 mps 754 mmHg 85%
    21:00 +28°C° 0 mm 3 mps 755 mmHg 89%
    22:00 +27°C° 0 mm 3 mps 756 mmHg 93%
    23:00 +27°C° 0 mm 3 mps 756 mmHg 93%

    Day after tomorrow, 27 April, Saturday

    Time Temperature Precipitation Wind Pressure Humidity
    00:00 +27°C° 0 mm 3 mps 756 mmHg 93%
    01:00 +27°C° 0 mm 2 mps 756 mmHg 94%
    02:00 +27°C° 0 mm 2 mps 755 mmHg 93%
    03:00 +26°C° 0 mm 2 mps 755 mmHg 92%
    04:00 +26°C° 0 mm 2 mps 755 mmHg 92%
    05:00 +27°C° 0 mm 2 mps 755 mmHg 87%
    06:00 +28°C° 0 mm 2 mps 756 mmHg 83%
    07:00 +29°C° 0 mm 2 mps 757 mmHg 79%
    08:00 +31°C° 0 mm 2 mps 757 mmHg 69%
    09:00 +34°C° 0 mm 2 mps 757 mmHg 60%
    10:00 +36°C° 0 mm 2 mps 758 mmHg 50%
    11:00 +37°C° 0 mm 3 mps 757 mmHg 50%
    12:00 +37°C° 0 mm 3 mps 756 mmHg 50%
    13:00 +37°C° 0 mm 4 mps 756 mmHg 50%
    14:00 +36°C° 0 mm 4 mps 755 mmHg 56%
    15:00 +35°C° 0 mm 4 mps 754 mmHg 63%
    16:00 +34°C° 0 mm 4 mps 754 mmHg 69%
    17:00 +32°C° 0 mm 4 mps 754 mmHg 74%
    18:00 +30°C° 0 mm 4 mps 754 mmHg 78%
    19:00 +29°C° 0 mm 3 mps 755 mmHg 83%
    20:00 +29°C° 0 mm 3 mps 755 mmHg 85%
    21:00 +28°C° 0 mm 3 mps 756 mmHg 86%
    22:00 +28°C° 0 mm 3 mps 757 mmHg 88%
    23:00 +27°C° 0.2 mm 2 mps 756 mmHg 89%

    28 April, Sunday

    Time Temperature Precipitation Wind Pressure Humidity
    00:00 +27°C° 0.2 mm 2 mps 756 mmHg 91%
    01:00 +27°C° 0.2 mm 2 mps 756 mmHg 92%
    02:00 +27°C° 0.4 mm 2 mps 756 mmHg 93%
    03:00 +27°C° 0.4 mm 2 mps 755 mmHg 93%
    04:00 +26°C° 0.4 mm 2 mps 755 mmHg 94%
    05:00 +27°C° 0.3 mm 2 mps 755 mmHg 90%
    06:00 +28°C° 0.3 mm 2 mps 756 mmHg 86%
    07:00 +29°C° 0.3 mm 2 mps 756 mmHg 82%
    08:00 +33°C° 0 mm 3 mps 756 mmHg 71%
    09:00 +35°C° 0 mm 3 mps 757 mmHg 60%
    10:00 +38°C° 0 mm 3 mps 757 mmHg 49%
    11:00 +40°C° 0 mm 4 mps 756 mmHg 47%
    12:00 +41°C° 0 mm 4 mps 755 mmHg 44%
    13:00 +41°C° 0 mm 5 mps 754 mmHg 41%
    14:00 +40°C° 0 mm 5 mps 754 mmHg 47%
    15:00 +37°C° 0 mm 5 mps 754 mmHg 53%
    16:00 +35°C° 0 mm 5 mps 753 mmHg 58%
    17:00 +33°C° 0.7 mm 4 mps 754 mmHg 68%
    18:00 +30°C° 0.7 mm 3 mps 754 mmHg 78%
    19:00 +28°C° 0.7 mm 2 mps 755 mmHg 88%
    20:00 +28°C° 0 mm 2 mps 756 mmHg 88%
    21:00 +28°C° 0 mm 2 mps 756 mmHg 88%
    22:00 +28°C° 0 mm 2 mps 757 mmHg 89%
    23:00 +28°C° 0 mm 2 mps 756 mmHg 89%

    29 April, Monday

    Time Temperature Precipitation Wind Pressure Humidity
    00:00 +27°C° 0 mm 2 mps 756 mmHg 89%
    01:00 +27°C° 0 mm 1 mps 755 mmHg 89%
    02:00 +27°C° 0 mm 1 mps 755 mmHg 89%
    03:00 +27°C° 0 mm 1 mps 755 mmHg 88%
    04:00 +27°C° 0 mm 2 mps 755 mmHg 88%
    05:00 +28°C° 0 mm 2 mps 755 mmHg 83%
    06:00 +29°C° 0 mm 2 mps 756 mmHg 79%
    07:00 +30°C° 0 mm 2 mps 756 mmHg 74%
    08:00 +34°C° 0 mm 2 mps 756 mmHg 64%
    09:00 +37°C° 0 mm 2 mps 756 mmHg 53%
    10:00 +40°C° 0 mm 2 mps 756 mmHg 43%
    11:00 +40°C° 0 mm 3 mps 756 mmHg 42%
    12:00 +41°C° 0 mm 4 mps 755 mmHg 42%
    13:00 +41°C° 0 mm 4 mps 754 mmHg 42%
    14:00 +38°C° 0 mm 4 mps 754 mmHg 49%
    15:00 +36°C° 0 mm 4 mps 753 mmHg 57%
    16:00 +34°C° 0 mm 4 mps 753 mmHg 64%
    17:00 +33°C° 0 mm 4 mps 754 mmHg 69%
    18:00 +31°C° 0 mm 3 mps 754 mmHg 74%
    19:00 +30°C° 0 mm 3 mps 755 mmHg 79%
    20:00 +30°C° 0 mm 3 mps 755 mmHg 81%
    21:00 +29°C° 0 mm 3 mps 755 mmHg 82%
    22:00 +29°C° 0 mm 2 mps 756 mmHg 84%
    23:00 +29°C° 0 mm 2 mps 755 mmHg 83%

    30 April, Tuesday

    Time Temperature Precipitation Wind Pressure Humidity
    00:00 +28°C° 0 mm 2 mps 755 mmHg 83%
    01:00 +28°C° 0 mm 2 mps 754 mmHg 83%
    02:00 +28°C° 0 mm 2 mps 754 mmHg 82%
    03:00 +28°C° 0 mm 2 mps 754 mmHg 81%
    04:00 +28°C° 0 mm 2 mps 754 mmHg 80%
    05:00 +29°C° 0 mm 2 mps 754 mmHg 75%
    06:00 +30°C° 0 mm 2 mps 755 mmHg 70%
    07:00 +31°C° 0 mm 2 mps 755 mmHg 65%
    08:00 +36°C° 0 mm 2 mps 755 mmHg 56%
    09:00 +39°C° 0 mm 2 mps 755 mmHg 46%
    10:00 +42°C° 0 mm 2 mps 755 mmHg 36%
    11:00 +42°C° 0 mm 3 mps 754 mmHg 38%
    12:00 +42°C° 0 mm 4 mps 754 mmHg 39%
    13:00 +41°C° 0 mm 4 mps 753 mmHg 41%
    14:00 +37°C° 0.6 mm 4 mps 753 mmHg 54%
    15:00 +35°C° 0.6 mm 3 mps 752 mmHg 66%
    16:00 +31°C° 0.6 mm 3 mps 752 mmHg 79%
    17:00 +30°C° 14.2 mm 3 mps 753 mmHg 85%
    18:00 +29°C° 14.2 mm 3 mps 753 mmHg 91%
    19:00 +28°C° 14.2 mm 2 mps 754 mmHg 97%
    20:00 +28°C° 6.7 mm 2 mps 754 mmHg 96%
    21:00 +28°C° 6.7 mm 2 mps 755 mmHg 96%
    22:00 +28°C° 6.7 mm 2 mps 756 mmHg 96%
    23:00 +27°C° 0.1 mm 3 mps 755 mmHg 96%
    Show more